EHI
1 3 6 6 6 4 2 1 0 0 0 0 0 0 1 3 3 3 3 4 4 3 2 3 3 4 3 3 3 2 1 1 1 0 0 0 0 0 0 0 0 0 0
2 3 5 5 4 2 1 0 0 0 0 0 0 1 2 3 3 3 3 3 3 2 1 2 3 3 2 2 2 2 2 2 1 0 0 0 0 0 0 0 0 0 0
3 3 3 2 1 0 0 0 0 0 0 0 1 2 3 3 3 3 3 2 2 1 1 2 2 1 1 1 1 1 1 1 1 0 0 0 0 0 0 0 0 0 0
3 3 2 1 0 0 0 0 0 0 0 1 2 3 3 3 3 3 2 1 0 0 2 4 3 1 0 0 0 0 0 0 1 1 1 0 0 0 0 0 0 0 0
3 2 1 0 0 0 0 0 0 0 0 1 2 3 3 3 2 1 1 1 0 0 2 4 3 2 1 1 1 1 1 1 3 4 3 1 1 0 0 0 0 0 0
2 1 0 0 0 0 0 0 0 0 0 0 1 1 2 2 1 0 0 1 0 0 0 1 2 3 2 1 1 1 1 1 3 4 4 3 2 1 1 0 0 0 0
2 1 0 0 0 0 0 0 0 0 0 0 0 0 1 1 0 0 0 0 0 0 0 0 1 3 3 2 1 1 1 0 1 2 3 3 4 3 2 1 0 0 0
1 0 0 0 0 0 0 0 0 0 0 0 0 0 0 1 1 0 0 0 0 0 0 0 1 2 3 2 1 1 1 2 2 1 1 2 3 3 3 2 1 1 1
1 0 0 0 0 0 0 1 0 0 0 0 0 0 0 1 1 1 0 0 0 0 0 0 0 1 1 2 2 2 3 4 3 2 2 1 2 3 3 3 3 2 2
2 1 0 0 0 0 0 0 0 1 2 1 0 0 0 1 2 2 1 0 0 0 0 0 0 1 1 1 3 4 5 5 4 4 3 2 3 3 3 2 2 2 2
3 2 1 0 0 0 0 0 1 2 3 3 2 2 1 1 2 3 2 1 1 1 1 0 1 2 2 2 3 5 5 4 3 3 3 3 3 2 1 1 1 1 2
4 3 1 0 1 1 1 1 1 3 4 5 4 3 3 3 4 5 4 3 2 2 2 1 2 2 3 3 4 4 5 3 1 1 1 2 2 1 0 0 1 2 2
4 3 2 1 2 3 3 3 3 3 4 5 4 4 3 3 4 6 6 5 4 4 3 3 2 2 4 6 5 4 3 1 0 0 0 1 1 0 0 0 2 3 3
4 4 3 3 4 4 5 6 5 4 5 5 4 4 5 4 5 7 8 7 6 4 4 4 3 4 7 9 7 4 3 1 0 0 0 0 0 0 0 0 1 2 2
5 4 5 6 7 8 9 9 8 7 7 6 5 6 7 7 7 10 11 11 9 7 5 6 6 8 9 9 6 5 5 4 1 0 0 0 0 0 0 0 0 1 1
7 7 8 9 10 11 13 12 11 11 10 8 7 9 9 9 10 12 14 15 14 10 7 8 10 10 10 9 7 8 9 7 4 1 0 0 0 0 0 0 0 0 0
11 12 13 13 12 12 14 14 13 14 13 11 10 11 11 12 14 15 16 17 17 14 11 11 12 12 12 11 11 13 11 8 5 2 0 0 0 0 0 0 0 0 0
16 16 14 12 11 12 14 14 14 15 15 15 14 14 13 14 16 17 18 18 18 16 13 13 12 12 13 13 14 14 11 8 6 3 1 1 0 0 0 0 0 0 0
17 16 13 9 9 11 13 14 14 15 18 19 18 16 14 14 16 18 20 20 19 18 16 14 12 12 12 14 13 10 8 7 6 5 4 3 1 0 0 0 0 0 0
16 14 11 8 8 9 11 14 15 17 19 21 20 18 15 13 13 16 19 21 20 19 17 14 12 11 13 14 12 6 5 7 8 7 7 6 4 2 1 0 0 0 0
16 15 12 11 10 10 11 14 17 18 18 18 17 16 15 13 12 11 13 16 17 17 15 13 10 11 14 16 12 7 6 8 10 10 10 9 8 6 5 3 1 0 0
20 19 17 15 14 12 11 11 13 15 16 16 14 13 12 12 11 8 7 8 9 10 11 11 10 12 17 18 16 12 11 12 12 12 11 10 9 9 8 7 4 2 0
22 21 19 18 16 13 9 5 6 10 14 14 13 11 10 10 11 8 6 5 6 7 8 10 11 14 18 21 20 17 16 15 14 14 12 9 9 8 8 7 5 2 1
22 21 20 18 16 12 6 1 2 6 9 11 11 10 11 12 12 10 10 10 11 11 9 8 10 12 15 18 20 19 17 16 15 14 12 8 7 7 5 5 4 2 0
25 24 23 21 18 13 6 1 1 4 6 9 11 11 12 13 12 11 13 16 18 17 12 7 7 8 9 11 13 14 15 16 15 14 13 10 8 7 6 5 5 3 1
28 29 27 24 21 15 7 1 1 4 6 9 12 13 12 12 10 9 14 19 21 20 15 7 5 5 6 5 6 8 12 15 15 14 14 12 9 7 7 7 7 5 2
Wind_Speed
5 5 3 3 3 3 4 3 4 4 4 4 4 4 3 4 4 4 6 11 9 8 8 7 7 7 7 7 7 7 7 7 7 7 7 7 7 6 7 7 6 6 6
4 4 4 3 3 3 3 3 4 3 3 3 3 4 3 4 4 3 4 8 9 8 7 7 7 7 6 7 7 7 7 7 6 6 6 7 7 6 7 7 7 6 6
5 3 3 3 3 3 4 3 4 3 3 3 4 3 3 3 3 3 3 3 6 9 8 7 7 6 6 7 7 7 7 6 6 6 7 7 6 7 6 6 6 6 6
4 3 3 3 3 3 3 3 3 3 3 2 3 2 2 3 3 3 3 3 3 4 8 8 7 6 6 6 7 7 7 7 7 7 7 7 7 7 7 6 6 5 6
4 3 2 3 3 3 3 3 4 3 3 3 2 2 2 2 2 3 3 4 4 3 4 8 8 6 6 6 6 6 6 6 7 7 7 7 7 7 7 7 7 6 6
4 3 3 4 3 3 3 3 3 3 2 3 2 2 1 1 2 2 3 3 3 4 4 4 6 6 7 6 5 5 5 5 6 6 6 7 7 7 7 7 7 7 7
4 3 2 4 3 3 3 4 3 4 3 2 2 2 2 2 2 2 2 2 3 3 3 3 3 3 5 8 6 5 5 5 4 5 5 5 6 6 6 6 7 7 7
3 4 3 3 3 3 4 4 3 2 2 2 2 2 3 3 3 2 2 3 3 3 3 4 3 3 3 3 5 6 5 4 4 4 4 5 5 5 6 6 7 7 7
3 2 3 2 3 3 3 3 3 3 2 2 2 2 1 1 2 3 2 2 2 2 3 3 4 4 4 3 4 7 6 5 5 4 4 4 4 4 4 5 5 6 6
3 3 3 3 3 3 3 4 4 3 3 3 3 2 2 1 2 2 3 3 3 3 3 3 3 4 4 3 3 4 5 5 5 5 5 4 4 4 4 5 5 5 5
3 4 3 3 3 3 3 3 3 4 4 4 3 3 3 2 4 3 2 3 3 3 3 3 2 2 3 3 3 4 6 5 4 4 4 4 4 4 4 5 5 5 6
4 4 4 4 4 3 4 4 4 5 4 4 4 3 3 3 3 3 3 3 3 2 3 2 3 3 3 4 4 6 6 5 4 4 4 4 4 4 4 4 5 5 5
4 5 5 4 4 4 4 4 4 4 5 5 5 4 4 4 3 3 3 3 3 2 3 3 3 4 4 3 4 7 7 6 5 5 4 4 4 4 4 4 4 4 4
3 4 5 5 5 5 5 4 5 5 4 5 6 5 4 4 4 3 3 3 3 3 4 4 2 3 3 3 3 6 5 7 6 5 5 5 5 5 4 4 4 4 3
4 5 5 5 5 5 5 5 4 4 4 5 5 6 5 4 4 4 4 4 4 4 3 4 3 3 3 3 4 5 5 7 7 6 6 6 5 5 5 5 4 4 3
3 4 5 5 5 5 5 5 5 4 5 4 4 5 5 5 4 5 4 4 5 5 4 2 2 3 3 3 5 4 4 7 8 8 7 6 6 6 6 6 5 4 4
4 4 5 5 5 5 5 5 5 5 5 5 5 6 6 6 5 4 4 5 5 5 5 3 2 3 4 4 4 4 5 5 5 8 8 7 7 7 7 7 6 5 5
4 4 4 5 5 5 4 5 6 6 6 6 6 6 6 5 5 5 4 5 4 4 5 4 3 4 5 5 5 5 5 5 4 8 9 9 8 8 7 7 7 6 6
4 4 4 4 4 4 5 5 6 6 6 6 6 6 6 6 6 5 5 5 5 5 5 5 5 3 4 4 5 5 6 5 5 6 9 10 10 9 9 8 8 7 7
5 5 4 4 4 5 5 5 5 6 6 6 6 6 6 7 7 7 6 6 6 5 5 6 5 4 4 4 5 5 5 5 5 5 6 7 9 11 11 11 10 9 8
5 5 5 4 4 5 5 5 6 6 6 6 6 6 6 5 5 5 5 5 5 5 5 5 5 4 4 4 5 5 5 5 5 5 5 6 7 7 9 12 12 11 10
5 5 5 5 5 4 2 2 5 5 5 6 6 6 6 6 6 6 6 5 5 6 6 5 5 5 6 6 5 5 5 5 5 4 6 6 6 7 7 8 10 12 12
5 5 5 5 5 4 3 4 5 6 6 6 6 6 5 4 5 6 6 7 8 7 7 8 8 7 6 6 6 8 7 7 6 4 5 7 6 7 7 6 11 13 12
4 4 4 5 4 4 3 4 5 7 7 6 6 6 6 5 5 5 6 7 8 8 9 9 9 8 8 6 7 8 7 7 7 6 7 7 7 7 7 6 11 14 14
3 4 4 4 4 3 2 4 5 6 5 6 6 6 6 6 4 4 7 7 8 7 8 8 8 7 6 6 6 6 7 7 7 7 7 7 7 7 7 7 8 15 14
4 4 3 3 4 3 2 3 5 5 5 5 5 5 5 5 4 5 8 8 9 8 7 7 8 9 9 9 10 10 8 8 8 7 6 7 7 6 6 6 6 8 10
Wind_Direction
123 120 113 113 118 120 134 126 112 111 115 123 126 124 127 125 126 132 129 149 162 169 173 172 171 174 176 179 186 190 193 192 194 193 193 198 207 211 211 211 211 212 212
117 123 132 129 125 127 110 115 118 125 131 117 116 113 124 119 118 133 135 148 162 167 172 174 176 176 181 186 189 193 193 194 195 193 197 202 209 212 213 216 215 216 216
122 128 130 139 125 126 128 130 129 134 142 136 128 128 131 132 133 141 152 155 159 165 170 176 182 185 187 192 194 197 199 196 196 199 203 209 213 213 211 212 213 215 218
132 139 141 135 135 146 136 135 146 137 137 135 126 131 132 142 156 160 163 164 168 156 163 173 183 192 196 197 200 201 204 203 200 204 210 215 217 214 208 208 210 213 218
143 151 141 124 154 145 145 157 132 142 141 130 134 141 150 160 167 171 164 170 164 173 168 158 174 190 194 197 202 206 210 206 205 212 216 217 216 210 205 209 209 212 216
156 161 157 150 163 149 144 130 129 142 142 143 150 121 149 165 176 162 173 165 171 183 187 176 176 176 180 186 199 206 208 209 209 215 218 218 213 206 205 208 210 214 216
155 172 161 152 172 156 153 151 150 151 155 155 163 151 153 156 149 164 178 175 172 185 189 188 195 183 172 181 193 201 205 209 211 207 209 211 208 207 208 210 212 213 217
170 170 171 182 166 159 165 161 170 178 176 186 214 202 176 159 171 168 173 186 183 182 191 193 187 190 211 176 158 181 195 200 194 190 199 207 203 201 206 212 214 214 218
174 170 168 192 173 192 171 182 193 200 200 197 235 267 250 163 155 157 177 189 190 195 205 187 193 190 201 198 167 167 180 185 193 197 197 191 189 195 201 205 209 213 218
176 175 180 184 195 198 176 204 197 211 212 208 193 239 286 339 238 169 183 184 193 212 227 224 207 199 201 196 157 127 156 178 194 200 200 194 190 191 198 203 205 212 219
190 194 188 192 198 206 201 221 207 224 219 227 222 203 200 213 241 236 195 187 189 203 213 223 224 218 205 203 193 156 155 171 182 185 189 186 186 192 201 207 208 212 217
188 192 194 200 210 213 205 216 221 220 230 234 245 242 227 224 223 231 227 218 209 195 207 216 222 216 213 206 189 145 159 173 178 176 184 192 197 204 206 206 210 212 213
189 185 199 204 213 212 215 220 221 234 228 225 232 240 245 246 253 252 246 239 235 206 205 215 217 214 213 202 172 162 173 176 179 183 190 198 201 202 204 207 207 208 213
199 184 199 206 212 217 219 217 229 224 225 229 234 240 246 246 246 244 248 250 246 229 210 212 208 209 211 201 152 188 176 173 181 187 192 196 196 197 200 202 204 208 211
204 191 204 208 212 215 223 226 235 235 233 235 236 231 239 239 241 244 242 244 255 257 238 202 203 193 196 183 161 200 194 169 181 189 196 197 197 198 199 197 197 199 208
213 208 215 218 220 219 218 225 229 225 237 240 250 256 254 249 241 239 245 247 252 265 266 220 201 184 185 186 173 206 194 167 184 192 195 199 201 200 200 200 200 203 210
217 219 220 223 225 228 224 223 236 227 232 238 241 241 245 258 254 248 242 243 241 247 253 250 220 184 192 208 186 207 209 211 190 185 197 203 205 205 205 206 208 212 215
220 218 221 222 225 228 228 229 239 239 236 238 239 245 250 244 242 255 251 245 242 243 249 244 228 207 206 206 201 217 218 220 217 177 191 203 206 206 207 210 213 216 219
222 226 227 232 234 235 233 235 242 248 246 245 242 242 246 246 245 244 248 250 245 236 238 240 230 214 213 207 206 219 222 227 227 186 189 198 202 205 209 212 216 218 219
222 228 228 233 239 241 238 238 237 243 249 250 248 244 243 244 246 244 240 244 249 247 235 239 232 220 215 201 216 222 223 219 227 216 202 203 200 206 211 213 214 215 218
219 219 225 230 239 241 243 242 242 238 244 248 248 248 247 249 261 259 262 248 241 244 238 235 233 230 224 208 221 226 233 231 227 225 222 216 206 211 205 211 213 214 217
223 221 229 231 236 239 206 221 251 251 248 248 248 246 240 230 230 231 251 260 260 249 249 247 239 237 234 229 229 233 233 234 237 214 230 234 223 224 219 217 194 199 210
220 225 229 230 233 236 204 208 233 252 251 250 250 250 254 235 225 232 218 222 236 245 253 258 258 254 245 232 230 232 232 240 250 234 230 241 229 235 233 215 182 193 204
210 219 227 234 236 239 205 222 236 242 251 251 249 245 250 252 244 244 236 231 234 230 229 235 249 255 256 245 234 240 244 242 245 239 228 247 240 239 238 224 185 194 202
209 218 224 230 239 245 205 218 239 244 244 247 247 245 249 247 229 236 241 240 243 240 223 224 237 243 248 242 239 242 236 238 244 238 222 242 247 242 238 231 200 193 202
204 218 222 229 239 251 201 208 236 249 250 252 244 239 229 248 228 223 240 241 243 245 245 229 228 230 233 227 220 232 237 240 245 243 215 229 243 239 241 227 217 200 205